Location: Paris
(48.6709°N, 2.3750°E)
Time: 09:08:29
(UTC+02:00)

CAS-4B - Pass Details

Date: 02 July 2022
Orbit: 522 x 537 km, 43.0° (Epoch: 08 August)

Event Time Altitude Azimuth Distance (km) Brightness Sun altitude
Exits shadow 02:58:43 11° 130° (SE) 1,712 ? -16.9°
Drops below altitude 10° 02:59:02 10° 125° (SE) 1,756 ? -16.8°
Sets 03:02:31 0° 94° (E) 2,652 ? -16.7°
